IBS15MY LEMD-GCXO

Flight info

Callsign IBS15MY
Flight time 2h 26m
Altitude 35000
Route CCS DCT ELVAR DCT BAROK UN873 BENTU UN873 SAMAR
Aircraft A320/M-SDE3FGHIRWY/LB1

Departure

Time 2026-05-06 15:58
Airport Adolfo Suárez Madrid–Barajas Airport (LEMD)

Arrival

Time 2026-05-06 18:24
Airport Tenerife Norte-Ciudad de La Laguna Airport (GCXO)
Time Latitude Longitude Altitude Speed Heading
2026-05-06 15:31 40.49602 -3.58969 2022 ft 0 kts 271°
2026-05-06 15:49 40.49602 -3.58945 2032 ft 2 kts 271°
2026-05-06 15:49 40.49602 -3.58923 2027 ft 2 kts 271°
2026-05-06 15:49 40.49601 -3.58913 2030 ft 0 kts 271°
2026-05-06 15:50 40.49601 -3.58892 2030 ft 3 kts 256°
2026-05-06 15:50 40.49607 -3.58874 2030 ft 0 kts 226°
2026-05-06 15:52 40.49604 -3.58877 2022 ft 2 kts 226°
2026-05-06 15:52 40.49587 -3.58886 2026 ft 1 kts 187°
2026-05-06 15:52 40.49585 -3.58885 2026 ft 0 kts 179°
2026-05-06 15:54 40.49574 -3.58885 2024 ft 10 kts 179°
2026-05-06 15:55 40.49432 -3.58882 2025 ft 29 kts 180°
2026-05-06 15:55 40.49240 -3.58868 2030 ft 13 kts 134°
2026-05-06 15:55 40.49241 -3.58745 2030 ft 14 kts 88°
2026-05-06 15:55 40.49240 -3.58604 2026 ft 16 kts 92°
2026-05-06 15:56 40.49244 -3.58424 2015 ft 24 kts 87°
2026-05-06 15:56 40.49246 -3.58170 2007 ft 31 kts 91°
2026-05-06 15:56 40.49240 -3.57881 1997 ft 32 kts 91°
2026-05-06 15:56 40.49246 -3.57631 1988 ft 17 kts 82°
2026-05-06 15:57 40.49286 -3.57526 1985 ft 12 kts 55°
2026-05-06 15:57 40.49342 -3.57451 1984 ft 10 kts 12°
2026-05-06 15:57 40.49421 -3.57455 1983 ft 19 kts 358°
2026-05-06 15:57 40.49736 -3.57459 1985 ft 77 kts 359°
2026-05-06 15:58 40.50483 -3.57458 1992 ft 135 kts 359°
2026-05-06 15:58 40.51591 -3.57471 2005 ft 181 kts 360°
2026-05-06 15:58 40.52800 -3.57479 2803 ft 162 kts 359°
2026-05-06 15:58 40.53846 -3.57497 3580 ft 146 kts 359°
2026-05-06 15:59 40.54925 -3.57525 3750 ft 162 kts 359°
2026-05-06 15:59 40.56047 -3.57644 4113 ft 164 kts 343°
2026-05-06 15:59 40.57004 -3.58494 4351 ft 178 kts 297°
2026-05-06 15:59 40.57295 -3.60144 4574 ft 198 kts 276°
2026-05-06 16:00 40.57800 -3.61921 4783 ft 221 kts 313°
2026-05-06 16:00 40.59038 -3.63189 5291 ft 230 kts 325°
2026-05-06 16:00 40.60357 -3.64404 5969 ft 233 kts 324°
2026-05-06 16:00 40.61677 -3.65678 6511 ft 244 kts 316°
2026-05-06 16:01 40.62649 -3.67597 6759 ft 266 kts 285°
2026-05-06 16:01 40.62823 -3.70064 7251 ft 277 kts 269°
2026-05-06 16:01 40.62810 -3.72626 7991 ft 281 kts 269°
2026-05-06 16:01 40.62798 -3.75215 8768 ft 284 kts 269°
2026-05-06 16:02 40.62789 -3.77822 9548 ft 287 kts 270°
2026-05-06 16:02 40.62782 -3.80464 10225 ft 293 kts 270°
2026-05-06 16:02 40.62778 -3.83257 10411 ft 316 kts 270°
2026-05-06 16:02 40.62776 -3.86248 10625 ft 336 kts 270°
2026-05-06 16:03 40.62774 -3.89334 11162 ft 344 kts 269°
2026-05-06 16:03 40.62767 -3.92501 11823 ft 348 kts 269°
2026-05-06 16:03 40.62758 -3.95704 12495 ft 352 kts 269°
2026-05-06 16:03 40.62749 -3.98935 13176 ft 355 kts 269°
2026-05-06 16:04 40.62740 -4.02201 13826 ft 358 kts 269°
2026-05-06 16:04 40.62732 -4.05488 14418 ft 361 kts 269°
2026-05-06 16:04 40.62722 -4.08802 15029 ft 363 kts 269°
2026-05-06 16:04 40.62710 -4.12126 15652 ft 364 kts 269°
2026-05-06 16:05 40.62697 -4.15471 16261 ft 366 kts 269°
2026-05-06 16:05 40.62682 -4.18827 16862 ft 368 kts 269°
2026-05-06 16:05 40.62666 -4.22213 17482 ft 370 kts 269°
2026-05-06 16:05 40.62650 -4.25598 18099 ft 371 kts 269°
2026-05-06 16:06 40.62633 -4.29013 18637 ft 374 kts 269°
2026-05-06 16:06 40.62613 -4.32448 19173 ft 375 kts 269°
2026-05-06 16:06 40.62589 -4.35890 19715 ft 376 kts 269°
2026-05-06 16:06 40.62566 -4.39294 20260 ft 378 kts 269°
2026-05-06 16:07 40.62544 -4.42761 20810 ft 379 kts 269°
2026-05-06 16:07 40.62463 -4.46234 21339 ft 380 kts 262°
2026-05-06 16:07 40.61758 -4.49587 21844 ft 383 kts 246°
2026-05-06 16:07 40.60346 -4.52572 22332 ft 386 kts 236°
2026-05-06 16:08 40.58777 -4.55450 22833 ft 387 kts 236°
2026-05-06 16:08 40.57192 -4.58330 23329 ft 389 kts 236°
2026-05-06 16:08 40.55602 -4.61209 23726 ft 391 kts 236°
2026-05-06 16:08 40.54000 -4.64103 24086 ft 392 kts 236°
2026-05-06 16:09 40.52388 -4.67013 24458 ft 394 kts 236°
2026-05-06 16:09 40.50773 -4.69935 24794 ft 396 kts 236°
2026-05-06 16:09 40.49151 -4.72873 25132 ft 398 kts 236°
2026-05-06 16:09 40.47522 -4.75822 25474 ft 400 kts 236°
2026-05-06 16:10 40.45889 -4.78774 25799 ft 401 kts 236°
2026-05-06 16:10 40.44245 -4.81752 26120 ft 403 kts 236°
2026-05-06 16:10 40.42596 -4.84742 26444 ft 405 kts 236°
2026-05-06 16:10 40.40935 -4.87746 26769 ft 406 kts 236°
2026-05-06 16:11 40.39268 -4.90751 27085 ft 408 kts 236°
2026-05-06 16:11 40.37592 -4.93766 27390 ft 410 kts 236°
2026-05-06 16:11 40.35909 -4.96793 27672 ft 412 kts 236°
2026-05-06 16:11 40.34220 -4.99831 27971 ft 413 kts 236°
2026-05-06 16:12 40.32525 -5.02880 28264 ft 415 kts 236°
2026-05-06 16:12 40.30817 -5.05944 28537 ft 417 kts 236°
2026-05-06 16:12 40.29105 -5.09015 28800 ft 418 kts 236°
2026-05-06 16:12 40.27389 -5.12094 29055 ft 419 kts 236°
2026-05-06 16:13 40.25688 -5.15141 29323 ft 421 kts 236°
2026-05-06 16:13 40.23954 -5.18237 29570 ft 422 kts 235°
2026-05-06 16:13 40.22211 -5.21340 29809 ft 424 kts 236°
2026-05-06 16:13 40.20459 -5.24454 30039 ft 425 kts 236°
2026-05-06 16:14 40.18707 -5.27573 30245 ft 427 kts 235°
2026-05-06 16:14 40.16952 -5.30695 30512 ft 425 kts 235°
2026-05-06 16:14 40.15201 -5.33812 30797 ft 424 kts 236°
2026-05-06 16:14 40.13458 -5.36917 31057 ft 423 kts 236°
2026-05-06 16:15 40.11717 -5.40014 31331 ft 422 kts 235°
2026-05-06 16:15 40.09976 -5.43103 31590 ft 422 kts 235°
2026-05-06 16:15 40.08232 -5.46189 31844 ft 421 kts 235°
2026-05-06 16:15 40.07066 -5.48253 32019 ft 420 kts 235°
2026-05-06 16:16 40.06089 -5.49980 32168 ft 420 kts 235°
2026-05-06 16:16 40.04350 -5.53052 32437 ft 419 kts 236°
2026-05-06 16:16 40.02620 -5.56111 32682 ft 418 kts 236°
2026-05-06 16:16 40.00891 -5.59163 32951 ft 417 kts 236°
2026-05-06 16:17 39.99164 -5.62207 33212 ft 417 kts 235°
2026-05-06 16:17 39.97439 -5.65243 33479 ft 416 kts 235°
2026-05-06 16:17 39.95736 -5.68235 33737 ft 415 kts 236°
2026-05-06 16:17 39.94139 -5.71347 33970 ft 413 kts 239°
2026-05-06 16:18 39.92615 -5.74517 34186 ft 412 kts 240°
2026-05-06 16:18 39.91133 -5.77706 34380 ft 412 kts 241°
2026-05-06 16:18 39.89658 -5.80926 34562 ft 412 kts 241°
2026-05-06 16:18 39.88190 -5.84123 34761 ft 412 kts 241°
2026-05-06 16:19 39.85220 -5.90508 34881 ft 411 kts 240°
2026-05-06 16:19 39.82245 -5.96845 34879 ft 410 kts 240°
2026-05-06 16:20 39.79256 -6.03170 34879 ft 410 kts 240°
2026-05-06 16:20 39.76286 -6.09441 34879 ft 410 kts 240°
2026-05-06 16:21 39.73303 -6.15753 34881 ft 410 kts 240°
2026-05-06 16:21 39.70312 -6.22060 34880 ft 410 kts 240°
2026-05-06 16:22 39.67315 -6.28360 34882 ft 410 kts 240°
2026-05-06 16:22 39.64314 -6.34663 34881 ft 410 kts 240°
2026-05-06 16:23 39.61309 -6.40960 34885 ft 410 kts 240°
2026-05-06 16:24 39.52392 -6.59567 34879 ft 410 kts 240°
2026-05-06 16:25 39.49380 -6.65841 34888 ft 410 kts 240°
2026-05-06 16:25 39.46366 -6.72104 34886 ft 410 kts 240°
2026-05-06 16:26 39.43364 -6.78314 34888 ft 410 kts 240°
2026-05-06 16:26 39.40342 -6.84560 34888 ft 411 kts 240°
2026-05-06 16:27 39.37282 -6.90877 34885 ft 416 kts 240°
2026-05-06 16:27 39.34201 -6.97230 34891 ft 417 kts 240°
2026-05-06 16:28 39.31118 -7.03559 34888 ft 416 kts 240°
2026-05-06 16:28 39.28032 -7.09877 34894 ft 416 kts 240°
2026-05-06 16:29 39.26309 -7.12886 34900 ft 420 kts 229°
2026-05-06 16:29 39.24032 -7.15305 34900 ft 425 kts 220°
2026-05-06 16:29 39.19237 -7.19772 34886 ft 425 kts 220°
2026-05-06 16:30 39.15237 -7.23453 34894 ft 425 kts 220°
2026-05-06 16:30 39.09602 -7.28626 34894 ft 425 kts 220°
2026-05-06 16:31 39.04791 -7.33058 34897 ft 425 kts 220°
2026-05-06 16:31 38.99990 -7.37479 34894 ft 425 kts 220°
2026-05-06 16:32 38.95181 -7.41893 34900 ft 424 kts 220°
2026-05-06 16:32 38.90376 -7.46298 34898 ft 424 kts 220°
2026-05-06 16:33 38.85599 -7.50661 34900 ft 424 kts 220°
2026-05-06 16:34 38.78400 -7.57235 34899 ft 423 kts 220°
2026-05-06 16:34 38.73602 -7.61610 34896 ft 423 kts 220°
2026-05-06 16:35 38.68798 -7.65978 34895 ft 423 kts 220°
2026-05-06 16:35 38.63995 -7.70338 34890 ft 423 kts 220°
2026-05-06 16:36 38.59191 -7.74700 34895 ft 423 kts 220°
2026-05-06 16:36 38.54385 -7.79048 34894 ft 423 kts 220°
2026-05-06 16:37 38.49581 -7.83386 34897 ft 423 kts 220°
2026-05-06 16:37 38.44772 -7.87721 34894 ft 423 kts 220°
2026-05-06 16:38 38.39957 -7.92058 34898 ft 423 kts 220°
2026-05-06 16:38 38.35145 -7.96383 34904 ft 423 kts 220°
2026-05-06 16:39 38.30339 -8.00701 34911 ft 423 kts 220°
2026-05-06 16:39 38.25527 -8.05019 34911 ft 423 kts 219°
2026-05-06 16:40 38.20715 -8.09322 34913 ft 423 kts 219°
2026-05-06 16:40 38.15930 -8.13598 34912 ft 423 kts 219°
2026-05-06 16:41 38.11123 -8.17884 34913 ft 422 kts 219°
2026-05-06 16:41 38.06307 -8.22166 34911 ft 422 kts 219°
2026-05-06 16:42 38.01493 -8.26436 34914 ft 422 kts 219°
2026-05-06 16:42 37.96681 -8.30712 34910 ft 422 kts 219°
2026-05-06 16:43 37.91864 -8.34982 34917 ft 422 kts 219°
2026-05-06 16:43 37.87048 -8.39237 34919 ft 422 kts 219°
2026-05-06 16:44 37.83046 -8.42769 34923 ft 422 kts 219°
2026-05-06 16:44 37.78225 -8.47013 34926 ft 422 kts 219°
2026-05-06 16:45 37.72592 -8.51980 34932 ft 422 kts 219°
2026-05-06 16:45 37.68583 -8.55507 34933 ft 422 kts 219°
2026-05-06 16:46 37.63755 -8.59744 34937 ft 423 kts 219°
2026-05-06 16:46 37.58926 -8.63976 34934 ft 423 kts 219°
2026-05-06 16:47 37.54093 -8.68207 34938 ft 423 kts 219°
2026-05-06 16:47 37.49255 -8.72434 34938 ft 423 kts 219°
2026-05-06 16:48 37.44411 -8.76651 34940 ft 424 kts 218°
2026-05-06 16:48 37.39561 -8.80870 34938 ft 424 kts 218°
2026-05-06 16:49 37.34706 -8.85084 34948 ft 424 kts 218°
2026-05-06 16:49 37.29884 -8.89266 34941 ft 424 kts 218°
2026-05-06 16:50 37.25001 -8.93502 34949 ft 424 kts 218°
2026-05-06 16:50 37.20171 -8.97686 34943 ft 424 kts 218°
2026-05-06 16:51 37.15307 -9.01890 34951 ft 424 kts 218°
2026-05-06 16:51 37.10441 -9.06082 34951 ft 425 kts 218°
2026-05-06 16:52 37.05568 -9.10275 34957 ft 425 kts 218°
2026-05-06 16:52 37.00696 -9.14462 34955 ft 425 kts 218°
2026-05-06 16:53 36.95824 -9.18636 34955 ft 425 kts 218°
2026-05-06 16:53 36.90943 -9.22818 34959 ft 425 kts 218°
2026-05-06 16:54 36.86102 -9.26963 34970 ft 424 kts 218°
2026-05-06 16:54 36.81220 -9.31129 34962 ft 424 kts 218°
2026-05-06 16:55 36.76344 -9.35288 34966 ft 424 kts 218°
2026-05-06 16:55 36.71475 -9.39436 34970 ft 424 kts 218°
2026-05-06 16:56 36.66604 -9.43583 34973 ft 424 kts 218°
2026-05-06 16:56 36.61729 -9.47725 34972 ft 424 kts 218°
2026-05-06 16:57 36.56853 -9.51852 34975 ft 424 kts 218°
2026-05-06 16:57 36.51977 -9.55978 34971 ft 424 kts 218°
2026-05-06 16:58 36.47086 -9.60107 34971 ft 424 kts 218°
2026-05-06 16:58 36.45678 -9.61293 34973 ft 424 kts 218°
2026-05-06 16:59 36.41610 -9.64717 34970 ft 424 kts 218°
2026-05-06 16:59 36.36726 -9.68833 34963 ft 424 kts 218°
2026-05-06 17:00 36.31837 -9.72946 34966 ft 425 kts 217°
2026-05-06 17:00 36.26993 -9.77136 34963 ft 424 kts 219°
2026-05-06 17:01 36.22300 -9.81550 34966 ft 424 kts 220°
2026-05-06 17:01 36.17636 -9.86016 34980 ft 424 kts 220°
2026-05-06 17:02 36.12942 -9.90438 34986 ft 424 kts 220°
2026-05-06 17:02 36.08219 -9.94832 34991 ft 425 kts 219°
2026-05-06 17:03 36.03488 -9.99219 34985 ft 425 kts 219°
2026-05-06 17:03 35.98785 -10.03580 34985 ft 425 kts 219°
2026-05-06 17:04 35.94053 -10.07967 34992 ft 426 kts 219°
2026-05-06 17:04 35.89316 -10.12359 34991 ft 426 kts 219°
2026-05-06 17:05 35.84583 -10.16752 34997 ft 426 kts 219°
2026-05-06 17:05 35.79838 -10.21139 35001 ft 426 kts 219°
2026-05-06 17:06 35.75086 -10.25514 34999 ft 427 kts 219°
2026-05-06 17:06 35.70330 -10.29889 34998 ft 427 kts 219°
2026-05-06 17:07 35.65567 -10.34277 34994 ft 427 kts 219°
2026-05-06 17:07 35.60801 -10.38649 35002 ft 427 kts 219°
2026-05-06 17:08 35.56031 -10.43022 35001 ft 428 kts 219°
2026-05-06 17:08 35.51282 -10.47357 35007 ft 428 kts 219°
2026-05-06 17:09 35.46481 -10.51753 34989 ft 428 kts 219°
2026-05-06 17:09 35.41727 -10.56102 35000 ft 429 kts 219°
2026-05-06 17:10 35.36940 -10.60464 34998 ft 429 kts 219°
2026-05-06 17:10 35.32140 -10.64821 34989 ft 430 kts 219°
2026-05-06 17:11 35.27326 -10.69180 34988 ft 430 kts 219°
2026-05-06 17:11 35.22512 -10.73545 34997 ft 431 kts 219°
2026-05-06 17:12 35.17699 -10.77909 34981 ft 431 kts 219°
2026-05-06 17:12 35.12873 -10.82282 34988 ft 432 kts 219°
2026-05-06 17:13 35.08069 -10.86610 34999 ft 432 kts 219°
2026-05-06 17:13 35.03224 -10.90967 34996 ft 433 kts 219°
2026-05-06 17:14 34.98381 -10.95334 35001 ft 433 kts 219°
2026-05-06 17:14 34.93528 -10.99703 35001 ft 434 kts 219°
2026-05-06 17:15 34.88667 -11.04058 34999 ft 434 kts 219°
2026-05-06 17:15 34.83802 -11.08424 35001 ft 434 kts 219°
2026-05-06 17:16 34.78926 -11.12791 34994 ft 435 kts 219°
2026-05-06 17:16 34.74046 -11.17144 35010 ft 435 kts 219°
2026-05-06 17:17 34.69164 -11.21498 35009 ft 436 kts 219°
2026-05-06 17:17 34.64274 -11.25861 35010 ft 436 kts 219°
2026-05-06 17:18 34.59379 -11.30214 35005 ft 436 kts 219°
2026-05-06 17:18 34.54476 -11.34561 35009 ft 437 kts 219°
2026-05-06 17:19 34.49565 -11.38908 35005 ft 437 kts 219°
2026-05-06 17:19 34.44690 -11.43233 35007 ft 437 kts 219°
2026-05-06 17:20 34.39767 -11.47574 35010 ft 438 kts 219°
2026-05-06 17:20 34.34851 -11.51919 35011 ft 438 kts 219°
2026-05-06 17:21 34.29924 -11.56260 35007 ft 438 kts 219°
2026-05-06 17:21 34.24989 -11.60597 35008 ft 438 kts 219°
2026-05-06 17:22 34.20052 -11.64932 35005 ft 439 kts 219°
2026-05-06 17:22 34.15120 -11.69271 35013 ft 439 kts 219°
2026-05-06 17:23 34.10181 -11.73609 35014 ft 439 kts 219°
2026-05-06 17:23 34.05239 -11.77924 35013 ft 439 kts 219°
2026-05-06 17:24 34.00316 -11.82221 35010 ft 439 kts 219°
2026-05-06 17:24 33.95367 -11.86539 35014 ft 439 kts 219°
2026-05-06 17:25 33.90416 -11.90857 35011 ft 440 kts 219°
2026-05-06 17:25 33.85463 -11.95169 35013 ft 440 kts 219°
2026-05-06 17:26 33.80505 -11.99478 35009 ft 440 kts 219°
2026-05-06 17:26 33.75534 -12.03782 35013 ft 440 kts 219°
2026-05-06 17:27 33.70569 -12.08082 35014 ft 440 kts 219°
2026-05-06 17:27 33.65591 -12.12382 35012 ft 440 kts 219°
2026-05-06 17:28 33.60611 -12.16679 35011 ft 441 kts 219°
2026-05-06 17:28 33.55665 -12.20954 35016 ft 441 kts 219°
2026-05-06 17:29 33.50678 -12.25248 35017 ft 441 kts 219°
2026-05-06 17:29 33.45690 -12.29532 35018 ft 441 kts 219°
2026-05-06 17:30 33.40692 -12.33817 35017 ft 441 kts 219°
2026-05-06 17:30 33.35705 -12.38102 35018 ft 442 kts 219°
2026-05-06 17:31 33.30703 -12.42383 35015 ft 442 kts 219°
2026-05-06 17:31 33.25697 -12.46654 35019 ft 442 kts 219°
2026-05-06 17:32 33.20682 -12.50925 35016 ft 442 kts 219°
2026-05-06 17:32 33.16516 -12.54479 35020 ft 443 kts 219°
2026-05-06 17:33 33.10682 -12.59445 35014 ft 443 kts 219°
2026-05-06 17:33 33.06482 -12.63022 35017 ft 443 kts 219°
2026-05-06 17:34 33.01453 -12.67293 35058 ft 445 kts 220°
2026-05-06 17:34 32.96440 -12.71546 35036 ft 445 kts 220°
2026-05-06 17:35 32.91380 -12.75822 35029 ft 446 kts 220°
2026-05-06 17:35 32.86317 -12.80095 35012 ft 446 kts 220°
2026-05-06 17:36 32.78736 -12.86514 35020 ft 446 kts 220°
2026-05-06 17:36 32.73663 -12.90794 35018 ft 447 kts 220°
2026-05-06 17:37 32.68583 -12.95058 35018 ft 447 kts 220°
2026-05-06 17:37 32.63488 -12.99314 35015 ft 448 kts 220°
2026-05-06 17:38 32.58398 -13.03570 35011 ft 448 kts 220°
2026-05-06 17:38 32.53335 -13.07808 35014 ft 448 kts 220°
2026-05-06 17:39 32.48240 -13.12080 35010 ft 448 kts 220°
2026-05-06 17:39 32.43144 -13.16345 35012 ft 449 kts 220°
2026-05-06 17:40 32.38032 -13.20608 35013 ft 449 kts 220°
2026-05-06 17:40 32.32916 -13.24869 35015 ft 450 kts 220°
2026-05-06 17:41 32.27795 -13.29121 35014 ft 450 kts 220°
2026-05-06 17:41 32.22669 -13.33383 35012 ft 450 kts 220°
2026-05-06 17:42 32.17571 -13.37618 35011 ft 451 kts 220°
2026-05-06 17:42 32.12428 -13.41874 35010 ft 451 kts 220°
2026-05-06 17:43 32.07280 -13.46122 35009 ft 452 kts 220°
2026-05-06 17:43 32.02128 -13.50378 35011 ft 452 kts 220°
2026-05-06 17:44 31.96979 -13.54626 35010 ft 452 kts 220°
2026-05-06 17:44 31.91819 -13.58873 35010 ft 453 kts 220°
2026-05-06 17:45 31.86654 -13.63130 35013 ft 453 kts 220°
2026-05-06 17:45 31.81482 -13.67381 35013 ft 454 kts 219°
2026-05-06 17:46 31.76298 -13.71627 35013 ft 454 kts 219°
2026-05-06 17:46 31.71107 -13.75867 35014 ft 454 kts 219°
2026-05-06 17:47 31.65916 -13.80108 35016 ft 455 kts 219°
2026-05-06 17:47 31.60721 -13.84350 35016 ft 455 kts 219°
2026-05-06 17:48 31.55518 -13.88589 35016 ft 456 kts 219°
2026-05-06 17:48 31.50312 -13.92829 35017 ft 456 kts 219°
2026-05-06 17:49 31.45103 -13.97075 35014 ft 456 kts 219°
2026-05-06 17:49 31.39882 -14.01322 35017 ft 457 kts 219°
2026-05-06 17:50 31.34654 -14.05555 35016 ft 457 kts 219°
2026-05-06 17:50 31.29423 -14.09792 35017 ft 458 kts 219°
2026-05-06 17:51 31.24185 -14.14030 35019 ft 458 kts 219°
2026-05-06 17:51 31.18942 -14.18263 35020 ft 458 kts 219°
2026-05-06 17:52 31.13721 -14.22472 35020 ft 459 kts 219°
2026-05-06 17:52 31.08457 -14.26706 35015 ft 459 kts 219°
2026-05-06 17:53 31.03200 -14.30939 35016 ft 460 kts 219°
2026-05-06 17:53 30.97935 -14.35176 35016 ft 460 kts 219°
2026-05-06 17:54 30.92645 -14.39425 35020 ft 461 kts 219°
2026-05-06 17:54 30.87366 -14.43652 35018 ft 461 kts 219°
2026-05-06 17:55 30.82080 -14.47909 35013 ft 462 kts 219°
2026-05-06 17:55 30.76801 -14.52172 35018 ft 462 kts 219°
2026-05-06 17:56 30.71549 -14.56408 35018 ft 463 kts 219°
2026-05-06 17:56 30.66247 -14.60662 35021 ft 463 kts 219°
2026-05-06 17:57 30.60937 -14.64907 35014 ft 464 kts 219°
2026-05-06 17:57 30.55628 -14.69165 35018 ft 464 kts 219°
2026-05-06 17:58 30.50312 -14.73427 35016 ft 465 kts 219°
2026-05-06 17:58 30.44985 -14.77686 35017 ft 465 kts 219°
2026-05-06 17:59 30.39649 -14.81942 35017 ft 466 kts 219°
2026-05-06 17:59 30.34312 -14.86197 35014 ft 466 kts 219°
2026-05-06 18:00 30.28964 -14.90451 35016 ft 466 kts 219°
2026-05-06 18:00 30.23612 -14.94706 35015 ft 467 kts 219°
2026-05-06 18:01 30.18283 -14.98928 35014 ft 468 kts 219°
2026-05-06 18:01 30.12907 -15.03184 35020 ft 468 kts 219°
2026-05-06 18:02 30.07538 -15.07443 35021 ft 468 kts 219°
2026-05-06 18:02 30.02159 -15.11705 35021 ft 469 kts 219°
2026-05-06 18:03 29.96769 -15.15956 35013 ft 469 kts 219°
2026-05-06 18:03 29.91381 -15.20207 35015 ft 470 kts 219°
2026-05-06 18:04 29.85991 -15.24451 35053 ft 467 kts 218°
2026-05-06 18:04 29.80666 -15.28626 35059 ft 465 kts 219°
2026-05-06 18:05 29.75338 -15.32812 35055 ft 463 kts 219°
2026-05-06 18:05 29.70020 -15.36989 35044 ft 462 kts 219°
2026-05-06 18:06 29.64701 -15.41156 35037 ft 462 kts 218°
2026-05-06 18:06 29.59383 -15.45313 35029 ft 462 kts 218°
2026-05-06 18:07 29.54063 -15.49462 34649 ft 461 kts 219°
2026-05-06 18:07 29.51402 -15.51538 33886 ft 463 kts 219°
2026-05-06 18:07 29.48727 -15.53626 33030 ft 465 kts 219°
2026-05-06 18:08 29.46058 -15.55705 32443 ft 461 kts 219°
2026-05-06 18:08 29.43407 -15.57765 31883 ft 457 kts 219°
2026-05-06 18:08 29.40787 -15.59799 31351 ft 453 kts 219°
2026-05-06 18:08 29.38185 -15.61822 30832 ft 449 kts 219°
2026-05-06 18:09 29.35610 -15.63820 30322 ft 445 kts 219°
2026-05-06 18:09 29.33058 -15.65800 29784 ft 442 kts 219°
2026-05-06 18:09 29.30551 -15.67752 29239 ft 437 kts 220°
2026-05-06 18:09 29.28310 -15.70016 28719 ft 424 kts 234°
2026-05-06 18:10 29.26399 -15.72561 28169 ft 419 kts 234°
2026-05-06 18:10 29.24516 -15.75091 27643 ft 416 kts 234°
2026-05-06 18:10 29.22649 -15.77604 27122 ft 412 kts 234°
2026-05-06 18:10 29.20797 -15.80100 26624 ft 409 kts 234°
2026-05-06 18:11 29.18959 -15.82578 26135 ft 406 kts 234°
2026-05-06 18:11 29.17753 -15.84205 25823 ft 404 kts 234°
2026-05-06 18:11 29.15334 -15.87464 25201 ft 400 kts 234°
2026-05-06 18:11 29.13538 -15.89880 24744 ft 397 kts 234°
2026-05-06 18:12 29.11753 -15.92273 24303 ft 394 kts 234°
2026-05-06 18:12 29.09981 -15.94648 23862 ft 391 kts 234°
2026-05-06 18:12 29.08222 -15.97006 23387 ft 389 kts 234°
2026-05-06 18:12 29.06471 -15.99351 22894 ft 386 kts 234°
2026-05-06 18:13 29.04737 -16.01670 22436 ft 382 kts 234°
2026-05-06 18:13 29.03016 -16.03970 21974 ft 379 kts 233°
2026-05-06 18:13 29.01331 -16.06225 21546 ft 376 kts 233°
2026-05-06 18:13 28.99640 -16.08484 21109 ft 373 kts 233°
2026-05-06 18:14 28.97963 -16.10725 20674 ft 370 kts 233°
2026-05-06 18:14 28.96299 -16.12947 20248 ft 367 kts 233°
2026-05-06 18:14 28.94648 -16.15153 19836 ft 363 kts 233°
2026-05-06 18:14 28.93011 -16.17340 19418 ft 361 kts 233°
2026-05-06 18:15 28.91383 -16.19511 19027 ft 358 kts 233°
2026-05-06 18:15 28.90313 -16.20938 18760 ft 356 kts 233°
2026-05-06 18:15 28.88396 -16.23490 18295 ft 353 kts 232°
2026-05-06 18:15 28.86802 -16.25607 17844 ft 350 kts 232°
2026-05-06 18:16 28.85221 -16.27708 17404 ft 348 kts 232°
2026-05-06 18:16 28.83653 -16.29795 16961 ft 346 kts 232°
2026-05-06 18:16 28.82069 -16.31907 16127 ft 356 kts 232°
2026-05-06 18:16 28.80442 -16.34079 15298 ft 365 kts 232°
2026-05-06 18:17 28.78769 -16.36311 14490 ft 374 kts 232°
2026-05-06 18:17 28.77066 -16.38575 13788 ft 378 kts 232°
2026-05-06 18:17 28.75934 -16.40076 13403 ft 376 kts 231°
2026-05-06 18:17 28.74236 -16.42322 12890 ft 370 kts 231°
2026-05-06 18:18 28.72597 -16.44486 12369 ft 351 kts 231°
2026-05-06 18:18 28.71035 -16.46545 11869 ft 335 kts 232°
2026-05-06 18:18 28.69544 -16.48513 11382 ft 322 kts 232°
2026-05-06 18:18 28.68103 -16.50415 10884 ft 311 kts 232°
2026-05-06 18:19 28.66714 -16.52246 10425 ft 301 kts 232°
2026-05-06 18:19 28.65367 -16.54022 9946 ft 292 kts 232°
2026-05-06 18:19 28.64062 -16.55749 9466 ft 283 kts 232°
2026-05-06 18:19 28.62772 -16.57392 9004 ft 275 kts 224°
2026-05-06 18:20 28.61166 -16.58517 8541 ft 271 kts 201°
2026-05-06 18:20 28.59329 -16.58819 8095 ft 266 kts 177°
2026-05-06 18:20 28.57585 -16.58299 7654 ft 261 kts 153°
2026-05-06 18:20 28.56153 -16.57075 7103 ft 259 kts 130°
2026-05-06 18:21 28.55249 -16.55307 6466 ft 260 kts 110°
2026-05-06 18:21 28.54617 -16.53385 5834 ft 259 kts 109°
2026-05-06 18:21 28.53989 -16.51464 5165 ft 260 kts 109°
2026-05-06 18:21 28.53352 -16.49532 4455 ft 261 kts 109°
2026-05-06 18:22 28.52722 -16.47628 4060 ft 249 kts 109°
2026-05-06 18:22 28.52141 -16.45870 3939 ft 228 kts 109°
2026-05-06 18:22 28.51598 -16.44227 3679 ft 217 kts 109°
2026-05-06 18:22 28.51079 -16.42658 3423 ft 207 kts 108°
2026-05-06 18:23 28.50589 -16.41177 3173 ft 192 kts 108°
2026-05-06 18:23 28.50138 -16.39816 2889 ft 173 kts 107°
2026-05-06 18:23 28.49740 -16.38614 2676 ft 154 kts 108°
2026-05-06 18:23 28.49369 -16.37526 2474 ft 143 kts 110°
2026-05-06 18:24 28.49041 -16.36490 2209 ft 140 kts 109°
2026-05-06 18:24 28.48714 -16.35482 2076 ft 124 kts 110°
2026-05-06 18:24 28.48473 -16.34785 2078 ft 76 kts 111°
2026-05-06 18:24 28.48353 -16.34431 2064 ft 42 kts 110°
2026-05-06 18:25 28.48271 -16.34173 2053 ft 15 kts 109°
2026-05-06 18:25 28.48306 -16.34156 2052 ft 6 kts 333°
2026-05-06 18:25 28.48340 -16.34181 2051 ft 5 kts 320°
2026-05-06 18:25 28.48360 -16.34201 2052 ft 2 kts 316°
2026-05-06 18:26 28.48412 -16.34254 2053 ft 22 kts 311°
2026-05-06 18:26 28.48486 -16.34478 2062 ft 34 kts 289°
2026-05-06 18:26 28.48561 -16.34714 2075 ft 30 kts 292°
2026-05-06 18:26 28.48612 -16.34855 2081 ft 14 kts 293°
2026-05-06 18:27 28.48643 -16.34943 2084 ft 10 kts 294°
2026-05-06 18:27 28.48689 -16.34908 2078 ft 9 kts 65°
2026-05-06 18:27 28.48724 -16.34844 2076 ft 4 kts 59°
2026-05-06 18:27 28.48731 -16.34829 2073 ft 0 kts 60°